Weather Roundup
Issued by NWS

Home | Current Version | Previous Version | Graphics & Text | Print | Product List | Glossary Off
Versions: 1 2 3 4 5 6 7 8 9 10 11 12 13 14 15 16 17 18 19 20 21 22 23 24 25 26 27 28 29 30 31 32 33 34 35 36 37 38 39 40 41 42 43 44 45 46 47 48 49 50

000
NZUS93 KARX 290959
HRRWXR

CURRENT HOURLY OBSERVATIONS ACROSS
MUCH OF THE UPPER MISSISSIPPI VALLEY
NATIONAL WEATHER SERVICE LA CROSSE WI
500 AM CDT TUE JUL 29 2014


...SOUTHEAST MINNESOTA...


CITY           SKY/WX    TMP DP  RH WIND       PRES   REMARKS
ROCHESTER      CLEAR     55  52  89 W7        30.14R
ROCHESTER/MAYO FAIR      58  53  81 W7        30.13R
WINONA         CLEAR     55  54  94 NW5       30.10R
AUSTIN         CLEAR     55  52  88 NW5       30.13S
ALBERT LEA     CLEAR     55  54  94 W3        30.15S
DODGE CENTER   CLEAR     59  55  88 NW8       30.13S
PRESTON        CLEAR     55  55 100 NW9       30.13R
OWATONNA       CLEAR     54  52  94 CALM      30.14S
FARIBAULT      CLEAR     59  52  77 CALM      30.14S
$$

...ELSEWHERE IN MINNESOTA...


CITY           SKY/WX    TMP DP  RH WIND       PRES   REMARKS
MINNEAPOLIS    PTCLDY    60  56  86 NW7       30.12S
INTNL FALLS    MOCLDY    56  55  97 W3        30.09S
DULUTH         PTCLDY    54  51  90 W6        30.09S
RED WING       CLEAR     55  54  94 W5        30.10R
REDWOOD FALLS  CLEAR     54  52  93 W8        30.17S
MANKATO        PTCLDY    57  52  82 NW5       30.15S
WORTHINGTON    CLEAR     52  48  87 W7        30.21S
FAIRMONT       CLEAR     55  48  76 NW6       30.17S
$$

...SOUTHWEST WISCONSIN...


CITY           SKY/WX    TMP DP  RH WIND       PRES   REMARKS
LA CROSSE      CLEAR     56  53  90 CALM      30.08R
PRAIRIE DU CHI CLEAR     54  51  90 CALM      30.09S
BOSCOBEL       CLEAR     54  51  90 SW3       30.09R
LONE ROCK      NOT AVBL
PLATTEVILLE    CLEAR     53  51  94 W6        30.09S
FORT MC COY    CLEAR     49  47  95 CALM      30.08S
VIROQUA        FAIR      54  54 100 W3        30.08S
WIS DELLS      PTCLDY    58  50  76 CALM      30.05S
$$

...ELSEWHERE IN WISCONSIN...


CITY           SKY/WX    TMP DP  RH WIND       PRES   REMARKS
MILWAUKEE      CLOUDY    63  53  70 W8        30.01S
MADISON        PTCLDY    59  52  77 CALM      30.05R
GREEN BAY      PTCLDY    57  54  89 W7        29.99F
EAU CLAIRE     NOT AVBL
BLACK RVR FLS  FAIR      48  48 100 S3        30.06S
MEDFORD        MOCLDY    51  51  99 CALM      30.06S
WAUSAU         CLEAR     56  53  90 NW7       30.04R
WIS RAPIDS     PTCLDY    54  53  97 CALM      30.06R
MARSHFIELD     CLEAR     54  52  93 NW8       30.05S
RICE LAKE      NOT AVBL
$$

...NORTHEAST IOWA...


CITY           SKY/WX    TMP DP  RH WIND       PRES   REMARKS
WATERLOO       CLEAR     55  53  93 W5        30.12S
DUBUQUE        CLEAR     54  51  90 W3        30.10S
DECORAH        CLEAR     54  54 100 CALM      30.11R
MASON CITY     CLEAR     54  52  93 NW8       30.16S
CHARLES CITY   CLEAR     54  52  94 NW5       30.14S
OELWEIN        CLEAR     54  54 100 W7        30.13S
$$

...ELSEWHERE IN IOWA...


CITY           SKY/WX    TMP DP  RH WIND       PRES   REMARKS
DES MOINES     CLEAR     59  55  87 NW7       30.16R
IOWA CITY      CLEAR     56  54  93 SW3       30.13S
FORT DODGE     CLEAR     55  52  88 NW5       30.18S
MARSHALLTOWN   CLEAR     55  53  93 W6        30.14S
CEDAR RAPIDS   CLEAR     52  50  93 NW8       30.12R
$$

...NORTHERN ILLINOIS...


CITY           SKY/WX    TMP DP  RH WIND       PRES   REMARKS
CHICAGO-OHARE  CLEAR     60  51  72 W5        30.03S
DUPAGE         CLEAR     57  52  83 W5        30.04S
CHICAGO-MIDWAY CLEAR     60  53  77 W5        30.03S
MOLINE         CLEAR     53  50  89 SW3       30.10S
ROCKFORD       PTCLDY    56  51  84 CALM      30.07F
STERLING       CLEAR     54  50  87 NW5       30.08S
PEORIA         CLEAR     59  52  77 CALM      30.10S
$$

NOTE: "FAIR" INDICATES FEW OR NO CLOUDS BELOW 12,000 FEET WITH NO
SIGNIFICANT WEATHER AND/OR OBSTRUCTIONS TO VISIBILITY. WIND
SPEEDS ARE IN MILES-PER-HOUR.



USA.gov is the U.S. government's official web portal to all federal, state and local government web resources and services.